DECAYED

STARLINK-2511, 48332 (Decayed)

Orbit data source: Space-Track

STARLINK-2511, 48332 was a payload satellite owned by SpaceX/Seattle (US) in LEO that was launched on Thu, 29 Apr 2021 UTC via an FALCON 9 launch vehicle from the Air Force Eastern Test Range (AFETR). Payload-class satellites include a variety of spacecraft equipped with specific instruments for various scientific and technological missions. These include communications satellites like Starlink; space stations such as the ISS; scientific satellites like the Hubble; Earth observation satellites from companies like Planet Labs, Umbra, and HawkEye 360; GPS; miniature CubeSats for education and research; and military/defense satellites.

Not visible in the next 10 days
Identifier
48332, 2021-036BJ
Orbit
Decayed
Country
Flag of USUS
Related business
Manufacturer
SpaceX/Seattle
Mission
Decayed Commercial Communications
Bus & Motor
STARLINK, Unknown motor
Mass
260 kg wet, ~248 kg dry
Launch date (UTC)
2021-04-29 (5 years ago)
Launch vehicle
FALCON 9
Launch site
Air Force Eastern Test Range (AFETR)
Object type
Payload
Rocket body
Debris
Shape & HBR
Box + 1 Pan, 10.1 m
Radar Cross Section
13.562 m², Large (>1 m²)

Expand to show TLE details & history
Last TLE update: 4 months ago

TLE from 4 months ago
0 STARLINK-2511
1 48332U 21036BJ  26012.06068185  .09709209  12297-4  79474-3 0  9992
2 48332  53.0323 317.5325 0002341 178.8250 181.2802 16.39059240260037
Epoch: 2026-01-12T01:27Z
TLE epoch observation values (Epoch: 2026-01-12T01:27:22.911Z)
Latitude
-0.00003°
Longitude
-175.87578°
Altitude
170.766 km
Speed
7.804 km/s
True Right ascension
21h 10m 07s
True Declination
0° 00' 00"
Sunlit
Object was in daylight at epoch
Visualization orbit readout
Latitude
Unknown
Longitude
Unknown
Altitude
Unknown
Speed
Unknown
Apparent Right ascension
Unknown
Apparent Declination
Unknown
Sunlit
N/A
Visualization observer readout
Local Sidereal Time
22:58:41
Azimuth
Unknown
Elevation
Unknown
Doppler factor
Unknown
Orbital elements
Apogee altitude
170.129 km
Perigee altitude
167.063 km
Semi-major axis
6,546.733 km
Eccentricity
0.00023
Inclination
53.0323°
RAAN
317.5325°
Arg. of periapsis
178.825°
True anomaly
181.2796°
Mean anomaly
181.2802°
Eccentric anomaly
181.2799°
Mean motion
4.09738 °/min
Orbital period
87.86 mins
BSTAR
0.00079474
Loading maneuver chart data...
Computing Atmospheric mass density...

Documentation

Showing up to 5 results
|